Home > Time Zones > World Clock > Weather > U.S.A. > Erie > Past weeks

Flag for U.S.A. Weather past 2 weeks in Erie, Pennsylvania, U.S.A.

Now
57 °F

Sunny.


Feels Like: 55 °F
Forecast: 39 / 61 °F
Wind: 9 mph from Northeast

Location: Erie International Airport

Current Time: Apr 19, 2015 at 3:57:42 PM

Latest Report: Apr 19, 2015 at 2:51 PM


Visibility: 10 mi

Pressure: 29.89 "Hg

Humidity: 44%

Dew point: 35 °F

Location of ErieLocation

Historic Weather in Erie — Graph

°F

Erie temperature yesterday

Maximum temperature yesterday: 66 °F (at 2:51 PM)
Minimum temperature yesterday: 50 °F (at 12:51 AM)
Average temperature yesterday: 58 °F

Past Weeks' High & Low Weather Summary

 TemperatureHumidityPressure
High79 °F (Apr 13, 12:51 PM)97% (Apr 9, 12:51 AM)30.39 "Hg (Apr 9, 12:51 AM)
Low34 °F (Apr 4, 2:51 PM)18% (Apr 16, 11:51 AM)29.54 "Hg (Apr 10, 7:51 AM)
Average49 °F63%30.11 "Hg
* Reported Apr 4 2:51 PM — Apr 19 2:51 PM, Erie, Weather by CustomWeather, © 2015

Note: Actual official high and low records may vary slightly from our data, if they occured in-between our weather recording intervals... More about our weather records

Advertising

Erie weather history for previous 24 hours

 ConditionsComfort  
Time TempWeatherWind HumidityBarometerVisibility
2:51 PM
Sun, Apr 19
57 °FSunny.9 mph44%29.89 "Hg10 mi
1:51 PM58 °FSunny.10 mph46%29.93 "Hg10 mi
12:51 PM55 °FSunny.13 mph49%29.98 "Hg10 mi
11:51 AM52 °FPassing clouds.10 mph53%30.02 "Hg10 mi
10:51 AM52 °FSunny.10 mph50%30.06 "Hg10 mi
9:51 AM54 °FSunny.9 mph43%30.07 "Hg10 mi
8:51 AM51 °FSunny.8 mph36%30.11 "Hg10 mi
7:51 AM44 °FSunny.6 mph60%30.12 "Hg10 mi
6:51 AM38 °FClear.6 mph70%30.12 "Hg10 mi
5:51 AM38 °FClear.6 mph70%30.11 "Hg10 mi
4:51 AM40 °FClear.3 mph63%30.11 "Hg10 mi
3:51 AM42 °FClear.7 mph57%30.12 "Hg10 mi
2:51 AM44 °FClear.7 mph51%30.12 "Hg10 mi
1:51 AM46 °FClear.7 mph50%30.14 "Hg10 mi
12:51 AM49 °FClear.13 mph43%30.14 "Hg10 mi
11:51 PM
Sat, Apr 18
50 °FClear.5 mph41%30.14 "Hg10 mi
10:51 PM52 °FClear.3 mph35%30.14 "Hg10 mi
9:51 PM53 °FClear.10 mph34%30.13 "Hg10 mi
8:51 PM56 °FSunny.12 mph26%30.13 "Hg10 mi
7:51 PM59 °FSunny.14 mph26%30.10 "Hg10 mi
6:51 PM61 °FSunny.15 mph30%30.09 "Hg10 mi
5:51 PM58 °FSunny.6 mph44%30.10 "Hg10 mi
4:51 PM62 °FSunny.7 mph41%30.08 "Hg10 mi
3:51 PM65 °FSunny.9 mph42%30.06 "Hg10 mi
Weather by CustomWeather, © 2015

See weather overviewHow to use our weather pages